• In Netherlands
  • List of Countries
  • For 7 days
  • Water Temperature
  • Satellite Maps
  • Weather Map
  • Weather Widgets
  • user-avatar
    Login

    Hourly Weather San Juan

    Today, 27 May, Saturday

    Time Temperature Precipitation Wind Pressure Humidity
    00:00 +9°C° 0.3 mm 2 mps 712 mmHg 70%
    01:00 +9°C° 0.3 mm 2 mps 712 mmHg 72%
    02:00 +8°C° 0.2 mm 2 mps 712 mmHg 73%
    03:00 +8°C° 0.2 mm 2 mps 712 mmHg 75%
    04:00 +9°C° 0.2 mm 1 mps 712 mmHg 77%
    05:00 +9°C° 0 mm 1 mps 712 mmHg 77%
    06:00 +9°C° 0 mm 1 mps 712 mmHg 77%
    07:00 +8°C° 0 mm 1 mps 712 mmHg 77%
    08:00 +10°C° 0 mm 1 mps 712 mmHg 69%
    09:00 +12°C° 0 mm 1 mps 712 mmHg 61%
    10:00 +13°C° 0 mm 1 mps 712 mmHg 52%
    11:00 +14°C° 0 mm 1 mps 711 mmHg 49%
    12:00 +15°C° 0 mm 2 mps 710 mmHg 45%
    13:00 +15°C° 0 mm 2 mps 710 mmHg 41%
    14:00 +15°C° 0 mm 2 mps 710 mmHg 42%
    15:00 +15°C° 0 mm 2 mps 709 mmHg 43%
    16:00 +15°C° 0 mm 1 mps 709 mmHg 43%
    17:00 +13°C° 0 mm 1 mps 709 mmHg 48%
    18:00 +12°C° 0 mm 1 mps 710 mmHg 54%
    19:00 +11°C° 0 mm 1 mps 710 mmHg 59%
    20:00 +10°C° 0 mm 1 mps 710 mmHg 61%
    21:00 +10°C° 0 mm 1 mps 710 mmHg 63%
    22:00 +9°C° 0 mm 1 mps 710 mmHg 64%
    23:00 +9°C° 0 mm 1 mps 710 mmHg 64%

    Tomorrow, 28 May, Sunday

    Time Temperature Precipitation Wind Pressure Humidity
    00:00 +9°C° 0 mm 1 mps 710 mmHg 63%
    01:00 +9°C° 0 mm 1 mps 709 mmHg 63%
    02:00 +9°C° 0 mm 1 mps 709 mmHg 62%
    03:00 +9°C° 0 mm 1 mps 708 mmHg 61%
    04:00 +7°C° 0 mm 2 mps 708 mmHg 60%
    05:00 +9°C° 0 mm 1 mps 708 mmHg 58%
    06:00 +9°C° 0 mm 1 mps 708 mmHg 57%
    07:00 +9°C° 0 mm 1 mps 708 mmHg 56%
    08:00 +11°C° 0 mm 1 mps 708 mmHg 50%
    09:00 +13°C° 0 mm 1 mps 708 mmHg 43%
    10:00 +15°C° 0 mm 1 mps 709 mmHg 37%
    11:00 +15°C° 0 mm 1 mps 708 mmHg 34%
    12:00 +16°C° 0 mm 2 mps 707 mmHg 32%
    13:00 +17°C° 0 mm 2 mps 706 mmHg 29%
    14:00 +17°C° 0 mm 2 mps 706 mmHg 31%
    15:00 +16°C° 0 mm 2 mps 706 mmHg 33%
    16:00 +16°C° 0 mm 2 mps 706 mmHg 34%
    17:00 +14°C° 0 mm 2 mps 706 mmHg 40%
    18:00 +13°C° 0 mm 2 mps 706 mmHg 45%
    19:00 +12°C° 0 mm 2 mps 707 mmHg 50%
    20:00 +10°C° 0 mm 2 mps 707 mmHg 51%
    21:00 +10°C° 0 mm 2 mps 707 mmHg 53%
    22:00 +10°C° 0 mm 2 mps 707 mmHg 54%
    23:00 +9°C° 0 mm 2 mps 707 mmHg 55%

    Day after tomorrow, 29 May, Monday

    Time Temperature Precipitation Wind Pressure Humidity
    00:00 +10°C° 0 mm 1 mps 707 mmHg 55%
    01:00 +10°C° 0 mm 1 mps 707 mmHg 56%
    02:00 +9°C° 0 mm 1 mps 707 mmHg 57%
    03:00 +9°C° 0 mm 1 mps 707 mmHg 58%
    04:00 +9°C° 0 mm 1 mps 707 mmHg 59%
    05:00 +9°C° 0 mm 1 mps 707 mmHg 59%
    06:00 +9°C° 0 mm 1 mps 707 mmHg 59%
    07:00 +10°C° 0 mm 1 mps 708 mmHg 59%
    08:00 +10°C° 0 mm 2 mps 708 mmHg 55%
    09:00 +13°C° 0 mm 2 mps 708 mmHg 50%
    10:00 +14°C° 0 mm 2 mps 709 mmHg 46%
    11:00 +15°C° 0 mm 2 mps 708 mmHg 45%
    12:00 +16°C° 0 mm 3 mps 708 mmHg 44%
    13:00 +16°C° 0 mm 3 mps 708 mmHg 43%
    14:00 +16°C° 0 mm 3 mps 708 mmHg 46%
    15:00 +14°C° 0 mm 3 mps 708 mmHg 50%
    16:00 +14°C° 0 mm 3 mps 708 mmHg 53%
    17:00 +13°C° 0 mm 3 mps 708 mmHg 59%
    18:00 +12°C° 0 mm 3 mps 709 mmHg 65%
    19:00 +11°C° 0 mm 3 mps 709 mmHg 70%
    20:00 +12°C° 0 mm 2 mps 710 mmHg 71%
    21:00 +10°C° 0 mm 2 mps 710 mmHg 72%
    22:00 +10°C° 0 mm 2 mps 710 mmHg 73%
    23:00 +10°C° 0 mm 2 mps 710 mmHg 74%

    30 May, Tuesday

    Time Temperature Precipitation Wind Pressure Humidity
    00:00 +9°C° 0 mm 2 mps 710 mmHg 75%
    01:00 +9°C° 0 mm 2 mps 710 mmHg 77%
    02:00 +9°C° 0.1 mm 2 mps 709 mmHg 78%
    03:00 +9°C° 0.1 mm 2 mps 709 mmHg 79%
    04:00 +9°C° 0.1 mm 2 mps 709 mmHg 81%
    05:00 +9°C° 0.2 mm 2 mps 710 mmHg 81%
    06:00 +9°C° 0.2 mm 2 mps 710 mmHg 81%
    07:00 +9°C° 0.2 mm 2 mps 710 mmHg 82%
    08:00 +10°C° 0.4 mm 2 mps 711 mmHg 76%
    09:00 +13°C° 0.4 mm 2 mps 711 mmHg 69%
    10:00 +14°C° 0.4 mm 2 mps 711 mmHg 63%
    11:00 +15°C° 0.1 mm 2 mps 711 mmHg 60%
    12:00 +16°C° 0.1 mm 2 mps 710 mmHg 56%
    13:00 +16°C° 0.1 mm 1 mps 709 mmHg 53%
    14:00 +16°C° 0 mm 1 mps 709 mmHg 54%
    15:00 +16°C° 0 mm 1 mps 709 mmHg 55%
    16:00 +16°C° 0 mm 1 mps 709 mmHg 56%
    17:00 +14°C° 0 mm 1 mps 710 mmHg 62%
    18:00 +13°C° 0 mm 1 mps 710 mmHg 67%
    19:00 +12°C° 0 mm 1 mps 710 mmHg 72%
    20:00 +12°C° 0 mm 1 mps 710 mmHg 71%
    21:00 +12°C° 0 mm 2 mps 710 mmHg 69%
    22:00 +10°C° 0 mm 2 mps 710 mmHg 67%
    23:00 +10°C° 0 mm 2 mps 710 mmHg 65%

    31 May, Wednesday

    Time Temperature Precipitation Wind Pressure Humidity
    00:00 +10°C° 0 mm 2 mps 710 mmHg 63%
    01:00 +10°C° 0 mm 2 mps 710 mmHg 62%
    02:00 +10°C° 0 mm 2 mps 709 mmHg 62%
    03:00 +9°C° 0 mm 2 mps 709 mmHg 62%
    04:00 +9°C° 0 mm 2 mps 709 mmHg 63%
    05:00 +9°C° 0 mm 2 mps 709 mmHg 62%
    06:00 +10°C° 0 mm 2 mps 710 mmHg 61%
    07:00 +10°C° 0 mm 2 mps 710 mmHg 60%
    08:00 +13°C° 0 mm 2 mps 710 mmHg 50%
    09:00 +16°C° 0 mm 2 mps 710 mmHg 41%
    10:00 +18°C° 0 mm 2 mps 711 mmHg 31%
    11:00 +19°C° 0 mm 2 mps 710 mmHg 29%
    12:00 +20°C° 0 mm 2 mps 709 mmHg 26%
    13:00 +21°C° 0 mm 2 mps 709 mmHg 23%
    14:00 +20°C° 0 mm 2 mps 708 mmHg 25%
    15:00 +19°C° 0 mm 2 mps 708 mmHg 27%
    16:00 +19°C° 0 mm 1 mps 708 mmHg 30%
    17:00 +18°C° 0 mm 1 mps 708 mmHg 33%
    18:00 +15°C° 0 mm 1 mps 708 mmHg 37%
    19:00 +14°C° 0 mm 1 mps 708 mmHg 41%
    20:00 +13°C° 0 mm 1 mps 708 mmHg 41%
    21:00 +13°C° 0 mm 2 mps 707 mmHg 41%
    22:00 +13°C° 0 mm 2 mps 707 mmHg 42%
    23:00 +13°C° 0 mm 2 mps 707 mmHg 43%

    1 June, Thursday

    Time Temperature Precipitation Wind Pressure Humidity
    00:00 +12°C° 0 mm 2 mps 706 mmHg 45%
    01:00 +12°C° 0 mm 2 mps 706 mmHg 47%
    02:00 +12°C° 0 mm 2 mps 706 mmHg 48%
    03:00 +10°C° 0 mm 2 mps 705 mmHg 50%
    04:00 +10°C° 0 mm 2 mps 705 mmHg 52%
    05:00 +11°C° 0 mm 1 mps 705 mmHg 53%
    06:00 +11°C° 0 mm 1 mps 705 mmHg 53%
    07:00 +11°C° 0 mm 1 mps 705 mmHg 54%
    08:00 +13°C° 0 mm 1 mps 706 mmHg 48%
    09:00 +16°C° 0 mm 1 mps 706 mmHg 43%
    10:00 +19°C° 0 mm 1 mps 706 mmHg 37%
    11:00 +20°C° 0 mm 1 mps 705 mmHg 35%
    12:00 +21°C° 0 mm 1 mps 705 mmHg 33%
    13:00 +21°C° 0 mm 2 mps 704 mmHg 31%
    14:00 +20°C° 0 mm 2 mps 704 mmHg 35%
    15:00 +19°C° 0 mm 2 mps 704 mmHg 39%
    16:00 +18°C° 0 mm 2 mps 704 mmHg 43%
    17:00 +17°C° 0 mm 2 mps 705 mmHg 50%
    18:00 +15°C° 0 mm 2 mps 705 mmHg 56%
    19:00 +14°C° 0 mm 2 mps 705 mmHg 63%
    20:00 +13°C° 0 mm 2 mps 706 mmHg 65%
    21:00 +13°C° 0 mm 2 mps 706 mmHg 66%
    22:00 +12°C° 0 mm 1 mps 706 mmHg 67%
    23:00 +12°C° 0 mm 1 mps 706 mmHg 67%
    Show more